Location: Bathurst
(33.4193°S, 149.5775°E)
Time: 15:11:36
(UTC+11:00)

Envisat - Pass Details

Date: 31 January 2021
Orbit: 764 x 766 km, 98.1° (Epoch: 07 March)

Event Time Altitude Azimuth Distance (km) Brightness Sun altitude
Rises 05:31:48 0° 29° (NNE) 3,218 6.2 -10.5°
Reaches altitude 10° 05:34:10 10° 35° (NE) 2,299 5.6 -10.0°
Maximum altitude 05:39:00 46° 107° (ESE) 1,028 4.3 -9.2°
Drops below altitude 10° 05:43:53 10° 179° (S) 2,328 5.9 -8.2°
Sets 05:46:17 0° 184° (S) 3,262 6.6 -7.8°
